| time (UTC) | temp F | wind direction | speed MPH | gust MPH | rain 1hr in | rain 24hr in | rain mn in | humidity % | barometer mb |
| 20260901082420 | 74 | 0.0 | 0.0 | 0.00 | 0.00 | 0.00 | 85 | ||
| 20260901081907 | 74 | 0.0 | 0.0 | 0.00 | 0.00 | 0.00 | 85 | ||
| 20260901081351 | 74 | 0.0 | 0.0 | 0.00 | 0.00 | 0.00 | 86 | ||
| 20260901080835 | 74 | 0.0 | 0.0 | 0.00 | 0.00 | 0.00 | 86 | ||
| 20260901080319 | 73 | 0.0 | 0.0 | 0.00 | 0.00 | 0.00 | 86 | ||
| 20260901075803 | 73 | 0.0 | 0.0 | 0.00 | 0.00 | 0.00 | 87 | ||
| 20260901075247 | 73 | 0.0 | 0.0 | 0.00 | 0.00 | 0.00 | 88 | ||
| 20260901074734 | 73 | 0.0 | 0.0 | 0.00 | 0.00 | 0.00 | 90 | ||
| 20260901074218 | 71 | 0.0 | 0.0 | 0.00 | 0.00 | 0.00 | 93 | ||
| 20260901073702 | 70 | 0.0 | 0.0 | 0.00 | 0.00 | 0.00 | 95 | ||
| 20260901073146 | 69 | 0.0 | 0.0 | 0.00 | 0.00 | 0.00 | 97 | ||
| 20260901072630 | 69 | 0.0 | 0.0 | 0.00 | 0.00 | 0.00 | 97 | ||
| 20260901072114 | 69 | 0.0 | 0.0 | 0.00 | 0.00 | 0.00 | 97 | ||
| 20260901071601 | 68 | 0.0 | 0.0 | 0.00 | 0.00 | 0.00 | 97 | ||
| 20260901071046 | 68 | 0.0 | 0.0 | 0.00 | 0.00 | 0.00 | 97 | ||
| 20260901070530 | 69 | 0.0 | 0.0 | 0.00 | 0.00 | 0.00 | 96 | ||
| 20260901070014 | 68 | 0.0 | 0.0 | 0.00 | 0.00 | 0.00 | 98 | ||
| 20260901065458 | 67 | 0.0 | 0.0 | 0.00 | 0.00 | 0.00 | 99 | ||
| 20260901064942 | 67 | 0.0 | 0.0 | 0.00 | 0.00 | 0.00 | 99 | ||
| 20260901064429 | 67 | 0.0 | 0.0 | 0.00 | 0.00 | 0.00 | 98 | ||
| 20260901063913 | 68 | 0.0 | 0.0 | 0.00 | 0.00 | 0.00 | 98 | ||
| 20260901063357 | 68 | 0.0 | 0.0 | 0.00 | 0.00 | 0.00 | 98 | ||
| 20260901062841 | 68 | 0.0 | 0.0 | 0.00 | 0.00 | 0.00 | 98 | ||
| 20260901062325 | 68 | 0.0 | 0.0 | 0.00 | 0.00 | 0.00 | 98 | ||
| 20260901061809 | 68 | 0.0 | 0.0 | 0.00 | 0.00 | 0.00 | 98 | ||
| 20260901061256 | 68 | 0.0 | 0.0 | 0.00 | 0.00 | 0.00 | 98 | ||
| 20260901060740 | 68 | 0.0 | 0.0 | 0.00 | 0.00 | 0.00 | 96 | ||
| 20260901060225 | 70 | 0.0 | 0.0 | 0.00 | 0.00 | 0.00 | 93 | ||
| 20260901055709 | 71 | 0.0 | 0.0 | 0.00 | 0.00 | 0.00 | 89 | ||
| 20260901055153 | 77 | 0.0 | 0.0 | 0.00 | 0.00 | 0.00 | 89 | ||
| 20260901054637 | 77 | 0.0 | 0.0 | 0.00 | 0.00 | 0.00 | 90 | ||
| 20260901054124 | 77 | 0.0 | 0.0 | 0.00 | 0.00 | 0.00 | 89 | ||
| 20260901053611 | 77 | 0.0 | 0.0 | 0.00 | 0.00 | 0.00 | 90 | ||
| 20260901053043 | 77 | 0.0 | 0.0 | 0.00 | 0.00 | 0.00 | 90 | ||
| 20260901052527 | 77 | 0.0 | 0.0 | 0.00 | 0.00 | 0.00 | 90 | ||
| 20260901052014 | 77 | 0.0 | 0.0 | 0.00 | 0.00 | 0.00 | 91 | ||
| 20260901051458 | 77 | 0.0 | 0.0 | 0.00 | 0.00 | 0.00 | 91 | ||
| 20260901050942 | 77 | 0.0 | 0.0 | 0.00 | 0.00 | 0.00 | 91 | ||
| 20260901050426 | 77 | 0.0 | 0.0 | 0.00 | 0.00 | 0.00 | 91 | ||
| 20260901045910 | 77 | 0.0 | 0.0 | 0.00 | 0.00 | 0.00 | 91 | ||
| 20260901045355 | 77 | 0.0 | 0.0 | 0.00 | 0.00 | 0.00 | 92 | ||
| 20260901044842 | 77 | 0.0 | 0.0 | 0.00 | 0.00 | 0.00 | 92 | ||
| 20260901044326 | 77 | 0.0 | 0.0 | 0.00 | 0.00 | 0.00 | 91 | ||
| 20260901043810 | 77 | 0.0 | 0.0 | 0.00 | 0.00 | 0.00 | 92 | ||
| 20260901043254 | 77 | 0.0 | 0.0 | 0.00 | 0.00 | 0.00 | 91 | ||
| 20260901042738 | 77 | 0.0 | 0.0 | 0.00 | 0.00 | 0.00 | 92 | ||
| 20260901042222 | 77 | 0.0 | 0.0 | 0.00 | 0.00 | 0.00 | 92 | ||
| 20260901041709 | 77 | 0.0 | 0.0 | 0.00 | 0.00 | 0.00 | 91 | ||
| 20260901041153 | 77 | 0.0 | 0.0 | 0.00 | 0.00 | 0.00 | 91 | ||
| 20260901040637 | 77 | 0.0 | 0.0 | 0.00 | 0.00 | 0.00 | 91 | ||
| 20260901040121 | 77 | 0.0 | 0.0 | 0.00 | 0.00 | 0.00 | 91 | ||
| 20260901035605 | 77 | 0.0 | 0.0 | 0.00 | 0.00 | 0.00 | 91 | ||
| 20260901035049 | 77 | 0.0 | 0.0 | 0.00 | 0.00 | 0.00 | 91 | ||
| 20260901034537 | 78 | 0.0 | 0.0 | 0.00 | 0.00 | 0.00 | 91 | ||
| 20260901034021 | 78 | 0.0 | 0.0 | 0.00 | 0.00 | 0.00 | 91 | ||
| 20260901033505 | 78 | 0.0 | 0.0 | 0.00 | 0.00 | 0.00 | 91 | ||
| 20260901032949 | 78 | 0.0 | 0.0 | 0.00 | 0.00 | 0.00 | 91 | ||
| 20260901032433 | 78 | 0.0 | 0.0 | 0.00 | 0.00 | 0.00 | 91 | ||
| 20260901031917 | 78 | 0.0 | 0.0 | 0.00 | 0.00 | 0.00 | 91 | ||
| 20260901031404 | 78 | 0.0 | 0.0 | 0.00 | 0.00 | 0.00 | 91 | ||
| 20260901030848 | 78 | 0.0 | 0.0 | 0.00 | 0.00 | 0.00 | 91 | ||
| 20260901030332 | 78 | 0.0 | 0.0 | 0.00 | 0.00 | 0.00 | 91 | ||
| 20260901025816 | 78 | 0.0 | 0.0 | 0.00 | 0.00 | 0.00 | 91 | ||
| 20260901025300 | 78 | 0.0 | 0.0 | 0.00 | 0.00 | 0.00 | 91 | ||
| 20260901024744 | 78 | 0.0 | 0.0 | 0.00 | 0.00 | 0.00 | 90 | ||
| 20260901024231 | 78 | 0.0 | 0.0 | 0.00 | 0.00 | 0.00 | 90 | ||
| 20260901023718 | 78 | 0.0 | 0.0 | 0.00 | 0.00 | 0.00 | 90 | ||
| 20260901023152 | 78 | 0.0 | 0.0 | 0.00 | 0.00 | 0.00 | 90 | ||
| 20260901022636 | 78 | 0.0 | 0.0 | 0.00 | 0.00 | 0.00 | 90 | ||
| 20260901022123 | 78 | 0.0 | 0.0 | 0.00 | 0.00 | 0.00 | 90 | ||
| 20260901021607 | 78 | 0.0 | 0.0 | 0.00 | 0.00 | 0.00 | 90 | ||
| 20260901021051 | 78 | 0.0 | 0.0 | 0.00 | 0.00 | 0.00 | 91 | ||
| 20260901020535 | 78 | 0.0 | 0.0 | 0.00 | 0.00 | 0.00 | 91 | ||
| 20260901020019 | 78 | 0.0 | 0.0 | 0.00 | 0.00 | 0.00 | 91 | ||
| 20260901015503 | 78 | 0.0 | 0.0 | 0.00 | 0.00 | 0.00 | 91 | ||
| 20260901014950 | 78 | 0.0 | 0.0 | 0.00 | 0.00 | 0.00 | 91 | ||
| 20260901014434 | 78 | 0.0 | 0.0 | 0.00 | 0.00 | 0.00 | 91 | ||
| 20260901013918 | 78 | 0.0 | 0.0 | 0.00 | 0.00 | 0.00 | 91 | ||
| 20260901013402 | 78 | 0.0 | 0.0 | 0.00 | 0.00 | 0.00 | 91 | ||
| 20260901012847 | 78 | 0.0 | 0.0 | 0.00 | 0.00 | 0.00 | 91 | ||
| 20260901012331 | 78 | 0.0 | 0.0 | 0.00 | 0.00 | 0.00 | 91 | ||
| 20260901011818 | 78 | 0.0 | 0.0 | 0.00 | 0.00 | 0.00 | 90 | ||
| 20260901011302 | 78 | 0.0 | 0.0 | 0.00 | 0.00 | 0.00 | 90 | ||
| 20260901010746 | 78 | 0.0 | 0.0 | 0.00 | 0.00 | 0.00 | 90 | ||
| 20260901010230 | 78 | 0.0 | 0.0 | 0.00 | 0.00 | 0.00 | 90 | ||
| 20260901005714 | 78 | 0.0 | 0.0 | 0.00 | 0.00 | 0.00 | 90 | ||
| 20260901005158 | 78 | 0.0 | 0.0 | 0.00 | 0.00 | 0.00 | 90 | ||
| 20260901004645 | 78 | 0.0 | 0.0 | 0.00 | 0.00 | 0.00 | 90 | ||
| 20260901004129 | 78 | 0.0 | 0.0 | 0.00 | 0.00 | 0.00 | 90 | ||
| 20260901003613 | 78 | 0.0 | 0.0 | 0.00 | 0.00 | 0.00 | 90 | ||
| 20260901003057 | 78 | 0.0 | 0.0 | 0.00 | 0.00 | 0.00 | 90 | ||
| 20260901002541 | 78 | 0.0 | 0.0 | 0.00 | 0.00 | 0.00 | 90 | ||
| 20260901002025 | 78 | 0.0 | 0.0 | 0.00 | 0.00 | 0.00 | 89 | ||
| 20260901001512 | 78 | 0.0 | 0.0 | 0.00 | 0.00 | 0.00 | 89 | ||
| 20260901000956 | 78 | 0.0 | 0.0 | 0.00 | 0.00 | 0.00 | 89 | ||
| 20260901000443 | 78 | 0.0 | 0.0 | 0.00 | 0.00 | 0.00 | 89 | ||
| 20260831235925 | 78 | 0.0 | 0.0 | 0.00 | 0.00 | 0.00 | 88 | ||
| 20260831235408 | 78 | 0.0 | 0.0 | 0.00 | 0.00 | 0.00 | 88 | ||
| 20260831234852 | 78 | 0.0 | 0.0 | 0.00 | 0.00 | 0.00 | 88 | ||
| 20260831234339 | 78 | 0.0 | 0.0 | 0.00 | 0.00 | 0.00 | 88 | ||
| 20260831233826 | 78 | 0.0 | 0.0 | 0.00 | 0.00 | 0.00 | 88 | ||
| 20260831233257 | 78 | 0.0 | 0.0 | 0.00 | 0.00 | 0.00 | 88 | ||
| 20260831232744 | 78 | 0.0 | 0.0 | 0.00 | 0.00 | 0.00 | 88 | ||
| 20260831232228 | 78 | 0.0 | 0.0 | 0.00 | 0.00 | 0.00 | 87 | ||
| 20260831231712 | 78 | 0.0 | 0.0 | 0.00 | 0.00 | 0.00 | 85 | ||
| 20260831231156 | 78 | 0.0 | 0.0 | 0.00 | 0.00 | 0.00 | 87 | ||
| 20260831230641 | 78 | 0.0 | 0.0 | 0.00 | 0.00 | 0.00 | 87 | ||
| 20260831230125 | 78 | 0.0 | 0.0 | 0.00 | 0.00 | 0.00 | 87 | ||
| 20260831225612 | 78 | 0.0 | 0.0 | 0.00 | 0.00 | 0.00 | 87 | ||
| 20260831225056 | 78 | 0.0 | 0.0 | 0.00 | 0.00 | 0.00 | 87 | ||
| 20260831224537 | 78 | 0.0 | 0.0 | 0.00 | 0.00 | 0.00 | 87 | ||
| 20260831224021 | 78 | 0.0 | 0.0 | 0.00 | 0.00 | 0.00 | 86 | ||
| 20260831223505 | 78 | 0.0 | 0.0 | 0.00 | 0.00 | 0.00 | 85 | ||
| 20260831222949 | 78 | 0.0 | 0.0 | 0.00 | 0.00 | 0.00 | 87 | ||
| 20260831222436 | 78 | 0.0 | 0.0 | 0.00 | 0.00 | 0.00 | 87 | ||
| 20260831221920 | 78 | 0.0 | 0.0 | 0.00 | 0.00 | 0.00 | 86 | ||
| 20260831221404 | 78 | 0.0 | 0.0 | 0.00 | 0.00 | 0.00 | 85 | ||
| 20260831220848 | 78 | 0.0 | 0.0 | 0.00 | 0.00 | 0.00 | 85 | ||
| 20260831220332 | 78 | 0.0 | 0.0 | 0.00 | 0.00 | 0.00 | 86 | ||
| 20260831215816 | 78 | 0.0 | 0.0 | 0.00 | 0.00 | 0.00 | 86 | ||
| 20260831215306 | 78 | 0.0 | 0.0 | 0.00 | 0.00 | 0.00 | 85 | ||
| 20260831214748 | 78 | 0.0 | 0.0 | 0.00 | 0.00 | 0.00 | 84 | ||
| 20260831214232 | 78 | 0.0 | 0.0 | 0.00 | 0.00 | 0.00 | 85 | ||
| 20260831213716 | 78 | 0.0 | 0.0 | 0.00 | 0.00 | 0.00 | 85 | ||
| 20260831213200 | 78 | 0.0 | 0.0 | 0.00 | 0.00 | 0.00 | 84 | ||
| 20260831212644 | 77 | 0.0 | 0.0 | 0.00 | 0.00 | 0.00 | 84 | ||
| 20260831212131 | 77 | 0.0 | 0.0 | 0.00 | 0.00 | 0.00 | 84 | ||
| 20260831211615 | 77 | 0.0 | 0.0 | 0.00 | 0.00 | 0.00 | 84 | ||
| 20260831211059 | 77 | 0.0 | 0.0 | 0.00 | 0.00 | 0.00 | 84 | ||
| 20260831210543 | 77 | 0.0 | 0.0 | 0.00 | 0.00 | 0.00 | 83 | ||
| 20260831210027 | 77 | 0.0 | 0.0 | 0.00 | 0.00 | 0.00 | 83 | ||
| 20260831205511 | 77 | 0.0 | 0.0 | 0.00 | 0.00 | 0.00 | 82 | ||
| 20260831204958 | 77 | 0.0 | 0.0 | 0.00 | 0.00 | 0.00 | 80 | ||
| 20260831204445 | 77 | 0.0 | 0.0 | 0.00 | 0.00 | 0.00 | 82 | ||
| 20260831203917 | 77 | 0.0 | 0.0 | 0.00 | 0.00 | 0.00 | 82 | ||
| 20260831203402 | 77 | 0.0 | 0.0 | 0.00 | 0.00 | 0.00 | 81 | ||
| 20260831202849 | 77 | 0.0 | 0.0 | 0.00 | 0.00 | 0.00 | 81 | ||
| 20260831202333 | 77 | 0.0 | 0.0 | 0.00 | 0.00 | 0.00 | 80 | ||
| 20260831201817 | 77 | 0.0 | 0.0 | 0.00 | 0.00 | 0.00 | 81 | ||
| 20260831201301 | 76 | 0.0 | 0.0 | 0.00 | 0.00 | 0.00 | 80 | ||
| 20260831200745 | 76 | 0.0 | 0.0 | 0.00 | 0.00 | 0.00 | 80 | ||
| 20260831200229 | 76 | 0.0 | 0.0 | 0.00 | 0.00 | 0.00 | 80 | ||
| 20260831195716 | 76 | 0.0 | 0.0 | 0.00 | 0.00 | 0.00 | 80 | ||
| 20260831195200 | 76 | 0.0 | 0.0 | 0.00 | 0.00 | 0.00 | 80 | ||
| 20260831194644 | 76 | 0.0 | 0.0 | 0.00 | 0.00 | 0.00 | 79 | ||
| 20260831194128 | 76 | 0.0 | 0.0 | 0.00 | 0.00 | 0.00 | 79 | ||
| 20260831193612 | 76 | 0.0 | 0.0 | 0.00 | 0.00 | 0.00 | 79 | ||
| 20260831193057 | 76 | 0.0 | 0.0 | 0.00 | 0.00 | 0.00 | 79 | ||
| 20260831192544 | 76 | 0.0 | 0.0 | 0.00 | 0.00 | 0.00 | 79 | ||
| 20260831192028 | 76 | 0.0 | 0.0 | 0.00 | 0.00 | 0.00 | 79 | ||
| 20260831191512 | 76 | 0.0 | 0.0 | 0.00 | 0.00 | 0.00 | 79 | ||
| 20260831190956 | 76 | 0.0 | 0.0 | 0.00 | 0.00 | 0.00 | 79 | ||
| 20260831190440 | 76 | 0.0 | 0.0 | 0.00 | 0.00 | 0.00 | 80 | ||
| 20260831185924 | 76 | 0.0 | 0.0 | 0.00 | 0.00 | 0.00 | 80 | ||
| 20260831185411 | 76 | 0.0 | 0.0 | 0.00 | 0.00 | 0.00 | 80 | ||
| 20260831184855 | 76 | 0.0 | 0.0 | 0.00 | 0.00 | 0.00 | 80 | ||
| 20260831184339 | 76 | 0.0 | 0.0 | 0.00 | 0.00 | 0.00 | 79 | ||
| 20260831183823 | 76 | 0.0 | 0.0 | 0.00 | 0.00 | 0.00 | 80 | ||
| 20260831183307 | 76 | 0.0 | 0.0 | 0.00 | 0.00 | 0.00 | 80 | ||
| 20260831182751 | 76 | 0.0 | 0.0 | 0.00 | 0.00 | 0.00 | 80 | ||
| 20260831182238 | 76 | 0.0 | 0.0 | 0.00 | 0.00 | 0.00 | 80 | ||
| 20260831181723 | 76 | 0.0 | 0.0 | 0.00 | 0.00 | 0.00 | 80 | ||
| 20260831181207 | 76 | 0.0 | 0.0 | 0.00 | 0.00 | 0.00 | 80 | ||
| 20260831180651 | 76 | 0.0 | 0.0 | 0.00 | 0.00 | 0.00 | 80 | ||
| 20260831180135 | 76 | 0.0 | 0.0 | 0.00 | 0.00 | 0.00 | 80 | ||
| 20260831175619 | 76 | 0.0 | 0.0 | 0.00 | 0.00 | 0.00 | 80 | ||
| 20260831175106 | 76 | 0.0 | 0.0 | 0.00 | 0.00 | 0.00 | 80 | ||
| 20260831174553 | 76 | 0.0 | 0.0 | 0.00 | 0.00 | 0.00 | 81 | ||
| 20260831174023 | 76 | 0.0 | 0.0 | 0.00 | 0.00 | 0.00 | 81 | ||
| 20260831173507 | 76 | 0.0 | 0.0 | 0.00 | 0.00 | 0.00 | 81 | ||
| 20260831172951 | 76 | 0.0 | 0.0 | 0.00 | 0.00 | 0.00 | 81 | ||
| 20260831172432 | 76 | 0.0 | 0.0 | 0.00 | 0.00 | 0.00 | 81 | ||
| 20260831171913 | 76 | 0.0 | 0.0 | 0.00 | 0.00 | 0.00 | 81 | ||
| 20260831171400 | 76 | 0.0 | 0.0 | 0.00 | 0.00 | 0.00 | 81 | ||
| 20260831170844 | 76 | 0.0 | 0.0 | 0.00 | 0.00 | 0.00 | 81 | ||
| 20260831170329 | 76 | 0.0 | 0.0 | 0.00 | 0.00 | 0.00 | 82 | ||
| 20260831165813 | 76 | 0.0 | 0.0 | 0.00 | 0.00 | 0.00 | 81 | ||
| 20260831165257 | 76 | 0.0 | 0.0 | 0.00 | 0.00 | 0.00 | 81 | ||
| 20260831164741 | 76 | 0.0 | 0.0 | 0.00 | 0.00 | 0.00 | 81 | ||
| 20260831164228 | 76 | 0.0 | 0.0 | 0.00 | 0.00 | 0.00 | 81 | ||
| 20260831163712 | 76 | 0.0 | 0.0 | 0.00 | 0.00 | 0.00 | 81 | ||
| 20260831163156 | 76 | 0.0 | 0.0 | 0.00 | 0.00 | 0.00 | 81 | ||
| 20260831162640 | 76 | 0.0 | 0.0 | 0.00 | 0.00 | 0.00 | 81 | ||
| 20260831162124 | 76 | 0.0 | 0.0 | 0.00 | 0.00 | 0.00 | 81 | ||
| 20260831161608 | 76 | 0.0 | 0.0 | 0.00 | 0.00 | 0.00 | 82 | ||
| 20260831161055 | 76 | 0.0 | 0.0 | 0.00 | 0.00 | 0.00 | 81 | ||
| 20260831160539 | 76 | 0.0 | 0.0 | 0.00 | 0.00 | 0.00 | 81 | ||
| 20260831160023 | 76 | 0.0 | 0.0 | 0.00 | 0.00 | 0.00 | 81 | ||
| 20260831155508 | 76 | 0.0 | 0.0 | 0.00 | 0.00 | 0.00 | 81 | ||
| 20260831154952 | 76 | 0.0 | 0.0 | 0.00 | 0.00 | 0.00 | 81 | ||
| 20260831154436 | 76 | 0.0 | 0.0 | 0.00 | 0.00 | 0.00 | 81 | ||
| 20260831153923 | 76 | 0.0 | 0.0 | 0.00 | 0.00 | 0.00 | 82 | ||
| 20260831153407 | 76 | 0.0 | 0.0 | 0.00 | 0.00 | 0.00 | 81 | ||
| 20260831152851 | 76 | 0.0 | 0.0 | 0.00 | 0.00 | 0.00 | 81 | ||
| 20260831152335 | 76 | 0.0 | 0.0 | 0.00 | 0.00 | 0.00 | 81 | ||
| 20260831151816 | 76 | 0.0 | 0.0 | 0.00 | 0.00 | 0.00 | 81 | ||
| 20260831151300 | 76 | 0.0 | 0.0 | 0.00 | 0.00 | 0.00 | 81 | ||
| 20260831150747 | 76 | 0.0 | 0.0 | 0.00 | 0.00 | 0.00 | 81 | ||
| 20260831150234 | 76 | 0.0 | 0.0 | 0.00 | 0.00 | 0.00 | 81 | ||
| 20260831145708 | 76 | 0.0 | 0.0 | 0.00 | 0.00 | 0.00 | 81 | ||
| 20260831145152 | 76 | 0.0 | 0.0 | 0.00 | 0.00 | 0.00 | 82 | ||
| 20260831144637 | 76 | 0.0 | 0.0 | 0.00 | 0.00 | 0.00 | 82 | ||
| 20260831144121 | 76 | 0.0 | 0.0 | 0.00 | 0.00 | 0.00 | 83 | ||
| 20260831143605 | 76 | 0.0 | 0.0 | 0.00 | 0.00 | 0.00 | 83 | ||
| 20260831143049 | 76 | 0.0 | 0.0 | 0.00 | 0.00 | 0.00 | 83 | ||
| 20260831142536 | 76 | 0.0 | 0.0 | 0.00 | 0.00 | 0.00 | 83 | ||
| 20260831142020 | 76 | 0.0 | 0.0 | 0.00 | 0.00 | 0.00 | 83 | ||
| 20260831141504 | 76 | 0.0 | 0.0 | 0.00 | 0.00 | 0.00 | 83 | ||
| 20260831140948 | 76 | 0.0 | 0.0 | 0.00 | 0.00 | 0.00 | 83 | ||
| 20260831140432 | 76 | 0.0 | 0.0 | 0.00 | 0.00 | 0.00 | 83 | ||
| 20260831135916 | 76 | 0.0 | 0.0 | 0.00 | 0.00 | 0.00 | 83 | ||
| 20260831135400 | 76 | 0.0 | 0.0 | 0.00 | 0.00 | 0.00 | 83 | ||
| 20260831134844 | 76 | 0.0 | 0.0 | 0.00 | 0.00 | 0.00 | 82 | ||
| 20260831134328 | 76 | 0.0 | 0.0 | 0.00 | 0.00 | 0.00 | 82 | ||
| 20260831133813 | 76 | 0.0 | 0.0 | 0.00 | 0.00 | 0.00 | 81 | ||
| 20260831133257 | 76 | 0.0 | 0.0 | 0.00 | 0.00 | 0.00 | 83 | ||
| 20260831132741 | 76 | 0.0 | 0.0 | 0.00 | 0.00 | 0.00 | 82 | ||
| 20260831132228 | 76 | 0.0 | 0.0 | 0.00 | 0.00 | 0.00 | 83 | ||
| 20260831131712 | 76 | 0.0 | 0.0 | 0.00 | 0.00 | 0.00 | 83 | ||
| 20260831131156 | 76 | 0.0 | 0.0 | 0.00 | 0.00 | 0.00 | 82 | ||
| 20260831130640 | 76 | 0.0 | 0.0 | 0.00 | 0.00 | 0.00 | 83 | ||
| 20260831130124 | 76 | 0.0 | 0.0 | 0.00 | 0.00 | 0.00 | 84 | ||
| 20260831125605 | 76 | 0.0 | 0.0 | 0.00 | 0.00 | 0.00 | 85 | ||
| 20260831125052 | 76 | 0.0 | 0.0 | 0.00 | 0.00 | 0.00 | 85 | ||
| 20260831124536 | 76 | 0.0 | 0.0 | 0.00 | 0.00 | 0.00 | 84 | ||
| 20260831124020 | 76 | 0.0 | 0.0 | 0.00 | 0.00 | 0.00 | 84 | ||
| 20260831123505 | 76 | 0.0 | 0.0 | 0.00 | 0.00 | 0.00 | 84 | ||
| 20260831122949 | 76 | 0.0 | 0.0 | 0.00 | 0.00 | 0.00 | 84 | ||
| 20260831122433 | 76 | 0.0 | 0.0 | 0.00 | 0.00 | 0.00 | 85 | ||
| 20260831121920 | 76 | 0.0 | 0.0 | 0.00 | 0.00 | 0.00 | 85 | ||
| 20260831121407 | 76 | 0.0 | 0.0 | 0.00 | 0.00 | 0.00 | 84 | ||
| 20260831120839 | 76 | 0.0 | 0.0 | 0.00 | 0.00 | 0.00 | 84 | ||
| 20260831120323 | 76 | 0.0 | 0.0 | 0.00 | 0.00 | 0.00 | 84 | ||
| 20260831115810 | 76 | 0.0 | 0.0 | 0.00 | 0.00 | 0.00 | 84 | ||
| 20260831115254 | 76 | 0.0 | 0.0 | 0.00 | 0.00 | 0.00 | 85 | ||
| 20260831114738 | 76 | 0.0 | 0.0 | 0.00 | 0.00 | 0.00 | 84 | ||
| 20260831114222 | 76 | 0.0 | 0.0 | 0.00 | 0.00 | 0.00 | 82 | ||
| 20260831113706 | 76 | 0.0 | 0.0 | 0.00 | 0.00 | 0.00 | 83 | ||
| 20260831113150 | 76 | 0.0 | 0.0 | 0.00 | 0.00 | 0.00 | 83 | ||
| 20260831112637 | 76 | 0.0 | 0.0 | 0.00 | 0.00 | 0.00 | 85 | ||
| 20260831112122 | 76 | 0.0 | 0.0 | 0.00 | 0.00 | 0.00 | 85 | ||
| 20260831111606 | 76 | 0.0 | 0.0 | 0.00 | 0.00 | 0.00 | 86 | ||
| 20260831111050 | 76 | 0.0 | 0.0 | 0.00 | 0.00 | 0.00 | 85 | ||
| 20260831110534 | 76 | 0.0 | 0.0 | 0.00 | 0.00 | 0.00 | 85 | ||
| 20260831110018 | 76 | 0.0 | 0.0 | 0.00 | 0.00 | 0.00 | 86 | ||
| 20260831105505 | 76 | 0.0 | 0.0 | 0.00 | 0.00 | 0.00 | 86 | ||
| 20260831104949 | 76 | 0.0 | 0.0 | 0.00 | 0.00 | 0.00 | 87 | ||
| 20260831104433 | 76 | 0.0 | 0.0 | 0.00 | 0.00 | 0.00 | 86 | ||
| 20260831103917 | 77 | 0.0 | 0.0 | 0.00 | 0.00 | 0.00 | 86 | ||
| 20260831103401 | 77 | 0.0 | 0.0 | 0.00 | 0.00 | 0.00 | 85 | ||
| 20260831102845 | 77 | 0.0 | 0.0 | 0.00 | 0.00 | 0.00 | 85 | ||
| 20260831102332 | 77 | 0.0 | 0.0 | 0.00 | 0.00 | 0.00 | 85 | ||
| 20260831101817 | 77 | 0.0 | 0.0 | 0.00 | 0.00 | 0.00 | 85 | ||
| 20260831101301 | 77 | 0.0 | 0.0 | 0.00 | 0.00 | 0.00 | 85 | ||
| 20260831100745 | 77 | 0.0 | 0.0 | 0.00 | 0.00 | 0.00 | 85 | ||
| 20260831100229 | 77 | 0.0 | 0.0 | 0.00 | 0.00 | 0.00 | 86 | ||
| 20260831095713 | 77 | 0.0 | 0.0 | 0.00 | 0.00 | 0.00 | 86 | ||
| 20260831095200 | 77 | 0.0 | 0.0 | 0.00 | 0.00 | 0.00 | 86 | ||
| 20260831094644 | 77 | 0.0 | 0.0 | 0.00 | 0.00 | 0.00 | 86 | ||
| 20260831094128 | 77 | 0.0 | 0.0 | 0.00 | 0.00 | 0.00 | 86 | ||
| 20260831093613 | 77 | 0.0 | 0.0 | 0.00 | 0.00 | 0.00 | 86 | ||
| 20260831093056 | 77 | 0.0 | 0.0 | 0.00 | 0.00 | 0.00 | 86 | ||
| 20260831092540 | 77 | 0.0 | 0.0 | 0.00 | 0.00 | 0.00 | 86 | ||
| 20260831092027 | 77 | 0.0 | 0.0 | 0.00 | 0.00 | 0.00 | 86 | ||
| 20260831091514 | 77 | 0.0 | 0.0 | 0.00 | 0.00 | 0.00 | 86 | ||
| 20260831090947 | 77 | 0.0 | 0.0 | 0.00 | 0.00 | 0.00 | 86 | ||
| 20260831090431 | 77 | 0.0 | 0.0 | 0.00 | 0.00 | 0.00 | 86 | ||
| 20260831085918 | 77 | 0.0 | 0.0 | 0.00 | 0.00 | 0.00 | 86 | ||
| 20260831085402 | 77 | 0.0 | 0.0 | 0.00 | 0.00 | 0.00 | 86 | ||
| 20260831084846 | 77 | 0.0 | 0.0 | 0.00 | 0.00 | 0.00 | 86 | ||
| 20260831084330 | 77 | 0.0 | 0.0 | 0.00 | 0.00 | 0.00 | 86 | ||
| 20260831083814 | 77 | 0.0 | 0.0 | 0.00 | 0.00 | 0.00 | 86 | ||
| 20260831083258 | 77 | 0.0 | 0.0 | 0.00 | 0.00 | 0.00 | 86 | ||
| 20260831082745 | 77 | 0.0 | 0.0 | 0.00 | 0.00 | 0.00 | 86 |